Date String (YYYY-MM-DD hh:mm:ss) UTC,Instrument flags,absolute air pressure of the measurement (hPa),sample flow rate (lpm),inlet stack bypass flow (lpm),air temperature of the measurement (°C),ambient temperature measured by the external sensor (°C),aerosol sample conditioner tube jacket temperature (°C),OPC LED temperature (°C),internal box temperature (°C),relative humidity of the measurement (%),span deviation,mass concentration of particles derived from Lorenz-Mie calculation of OPC scattering (μg/m³),mass concentration of particles derived from Lorenz-Mie calculation of OPC scattering (μg/m³),mass concentration of particles derived from Lorenz-Mie calculation of OPC scattering (μg/m³)
DateTimeUTC,F1_M11,P_M11,Q1_M11,Q2_M11,T1_M11,T2_M11,T3_M11,T4_M11,T5_M11,U1_M11,ZSPAN_M11,X0_M11,X2_M11,X1_M11
2024-05-14 07:00:00,SystemResetWarning,0825.9,5.00,000.00,024.7,023.7,000.0,032.9,026.4,019.2,0000.0,0007.15,0003.18,0002.74
2024-05-14 07:01:00,SystemResetWarning,0825.8,5.00,000.00,024.7,023.8,000.0,032.9,026.5,018.8,0000.0,0007.25,0003.20,0002.73
2024-05-14 07:02:00,SystemResetWarning,0825.9,5.00,000.00,024.8,024.0,000.0,033.0,026.6,018.7,0000.0,0007.34,0003.18,0002.72
2024-05-14 07:03:00,SystemResetWarning,0825.8,5.00,000.00,024.8,024.1,000.0,033.0,026.6,018.9,0000.0,0007.61,0003.16,0002.71
2024-05-14 07:04:00,SystemResetWarning,0825.7,5.00,000.00,024.9,024.2,000.0,033.0,026.7,018.7,0000.0,0007.84,0003.18,0002.71
2024-05-14 07:05:00,SystemResetWarning,0825.7,5.00,000.00,024.9,024.3,000.0,033.0,026.7,018.6,0000.0,0007.88,0003.20,0002.70
2024-05-14 07:06:00,SystemResetWarning,0825.9,5.00,000.00,024.9,024.4,000.0,033.0,026.8,018.5,0000.0,0007.72,0003.19,0002.69
2024-05-14 07:07:00,SystemResetWarning,0825.9,5.00,000.00,025.0,024.4,000.0,033.0,026.8,018.4,0000.0,0007.15,0003.17,0002.68
2024-05-14 07:08:00,SystemResetWarning,0825.9,5.00,000.00,025.0,024.5,000.0,033.0,026.8,018.3,0000.0,0007.41,0003.15,0002.67
2024-05-14 07:09:00,SystemResetWarning,0825.9,5.00,000.00,025.1,024.6,000.0,033.1,026.8,018.3,0000.0,0007.12,0003.14,0002.65
2024-05-14 07:10:00,SystemResetWarning,0825.9,5.00,000.00,025.1,024.6,000.0,033.1,026.9,018.5,0000.0,0006.07,0003.13,0002.65
2024-05-14 07:11:00,SystemResetWarning,0825.9,5.00,000.00,025.1,024.7,000.0,033.1,026.9,018.5,0000.0,0006.03,0003.10,0002.65
2024-05-14 07:12:00,SystemResetWarning,0825.9,5.00,000.00,025.2,024.7,000.0,033.2,027.0,018.5,0000.0,0005.98,0003.09,0002.65
2024-05-14 07:13:00,SystemResetWarning,0825.9,5.00,000.00,025.2,024.8,000.0,033.2,027.0,018.7,0000.0,0005.87,0003.12,0002.67
2024-05-14 07:14:00,SystemResetWarning,0825.9,5.00,000.00,025.3,024.8,000.0,033.2,027.0,018.7,0000.0,0005.33,0003.12,0002.68
2024-05-14 07:15:00,SystemResetWarning,0825.9,5.00,000.00,025.3,024.8,000.0,033.3,027.1,018.8,0000.0,0005.22,0003.11,0002.69
2024-05-14 07:16:00,SystemResetWarning,0825.9,5.00,000.00,025.3,024.9,000.0,033.3,027.1,018.6,0000.0,0005.12,0003.07,0002.69
2024-05-14 07:17:00,SystemResetWarning,0825.9,5.00,000.00,025.4,024.9,000.0,033.3,027.2,018.6,0000.0,0005.09,0003.05,0002.69
2024-05-14 07:18:00,SystemResetWarning,0825.8,5.00,000.00,025.4,025.0,000.0,033.4,027.2,018.4,0000.0,0005.01,0003.06,0002.69
2024-05-14 07:19:00,SystemResetWarning,0825.9,4.99,000.00,025.4,024.1,000.0,033.4,026.7,018.4,0000.0,0004.70,0003.10,0002.70
2024-05-14 07:20:00,SystemResetWarning,0825.9,5.01,000.00,025.0,022.2,000.0,033.5,025.7,018.9,0000.0,0005.12,0003.14,0002.71
2024-05-14 07:21:00,SystemResetWarning,0825.9,5.01,000.00,024.7,022.0,000.0,033.5,025.5,019.2,0000.0,0005.30,0003.17,0002.72
2024-05-14 07:22:00,SystemResetWarning,0825.9,5.00,000.00,024.6,022.3,000.0,033.3,025.6,019.2,0000.0,0005.19,0003.17,0002.72
2024-05-14 07:23:00,SystemResetWarning,0825.9,5.00,000.00,024.6,022.7,000.0,033.2,025.9,019.2,0000.0,0005.07,0003.15,0002.72
2024-05-14 07:24:00,SystemResetWarning,0825.9,5.00,000.00,024.6,023.0,000.0,033.1,026.1,019.4,0000.0,0004.91,0003.13,0002.70
2024-05-14 07:25:00,SystemResetWarning,0826.0,5.01,000.00,024.7,023.3,000.0,033.1,026.3,019.3,0000.0,0004.90,0003.13,0002.70
2024-05-14 07:26:00,SystemResetWarning,0825.9,4.99,000.00,024.7,023.5,000.0,033.0,026.4,019.2,0000.0,0004.68,0003.14,0002.68
2024-05-14 07:27:00,SystemResetWarning,0825.9,4.99,000.00,024.8,023.7,000.0,033.0,026.5,019.2,0000.0,0005.02,0003.17,0002.70
2024-05-14 07:28:00,SystemResetWarning,0825.9,5.00,000.00,024.8,023.9,000.0,033.0,026.5,019.0,0000.0,0005.10,0003.19,0002.70
2024-05-14 07:29:00,SystemResetWarning,0825.9,5.01,000.00,024.8,024.0,000.0,033.0,026.6,019.0,0000.0,0005.13,0003.19,0002.68
2024-05-14 07:30:00,SystemResetWarning,0825.8,5.01,000.00,024.9,024.2,000.0,033.0,026.6,019.0,0000.0,0005.07,0003.17,0002.67
2024-05-14 07:31:00,SystemResetWarning,0825.8,5.01,000.00,024.9,024.3,000.0,033.0,026.7,019.1,0000.0,0004.70,0003.15,0002.66
2024-05-14 07:32:00,SystemResetWarning,0825.7,5.00,000.00,025.0,024.4,000.0,033.0,026.8,019.0,0000.0,0004.72,0003.13,0002.66
2024-05-14 07:33:00,SystemResetWarning,0825.8,5.00,000.00,025.0,024.4,000.0,033.1,026.8,019.0,0000.0,0004.96,0003.15,0002.66
2024-05-14 07:34:00,SystemResetWarning,0825.8,5.00,000.00,025.1,024.5,000.0,033.1,026.8,019.1,0000.0,0005.05,0003.17,0002.66
2024-05-14 07:35:00,SystemResetWarning,0825.8,4.99,000.00,025.1,024.6,000.0,033.1,026.9,019.2,0000.0,0005.06,0003.17,0002.65
2024-05-14 07:36:00,SystemResetWarning,0825.8,4.99,000.00,025.2,024.6,000.0,033.2,026.9,019.1,0000.0,0005.03,0003.16,0002.63
2024-05-14 07:37:00,SystemResetWarning,0825.8,5.00,000.00,025.2,024.7,000.0,033.2,027.0,019.1,0000.0,0004.95,0003.15,0002.63
2024-05-14 07:38:00,SystemResetWarning,0825.8,5.01,000.00,025.2,024.7,000.0,033.2,027.0,019.0,0000.0,0004.63,0003.10,0002.60
2024-05-14 07:39:00,SystemResetWarning,0825.8,5.00,000.00,025.3,024.8,000.0,033.3,027.0,019.1,0000.0,0004.44,0003.05,0002.58
2024-05-14 07:40:00,SystemResetWarning,0825.7,4.99,000.00,025.3,024.8,000.0,033.3,027.1,019.1,0000.0,0004.35,0003.01,0002.58
2024-05-14 07:41:00,SystemResetWarning,0825.7,4.99,000.00,025.4,024.9,000.0,033.3,027.1,018.8,0000.0,0004.34,0003.02,0002.57
2024-05-14 07:42:00,SystemResetWarning,0825.7,5.00,000.00,025.4,024.9,000.0,033.3,027.1,019.0,0000.0,0004.29,0003.00,0002.57
2024-05-14 07:43:00,SystemResetWarning,0825.7,5.01,000.00,025.4,025.0,000.0,033.4,027.2,019.0,0000.0,0004.38,0002.97,0002.55
2024-05-14 07:44:00,SystemResetWarning,0825.7,5.00,000.00,025.5,025.0,000.0,033.4,027.2,018.9,0000.0,0005.04,0002.95,0002.53
2024-05-14 07:45:00,SystemResetWarning,0825.7,4.98,000.00,025.4,024.4,000.0,033.5,026.9,018.9,0000.0,0005.16,0002.92,0002.50
2024-05-14 07:46:00,SystemResetWarning,0825.6,5.00,000.00,025.1,022.2,000.0,033.5,025.8,019.4,0000.0,0005.92,0002.92,0002.49
2024-05-14 07:47:00,SystemResetWarning,0825.6,5.00,000.00,024.7,021.9,000.0,033.5,025.5,019.9,0000.0,0006.13,0002.90,0002.48
2024-05-14 07:48:00,SystemResetWarning,0825.6,5.02,000.00,024.6,022.2,000.0,033.4,025.6,020.1,0000.0,0006.71,0002.90,0002.48
2024-05-14 07:49:00,SystemResetWarning,0825.6,4.99,000.00,024.6,022.6,000.0,033.3,025.9,020.4,0000.0,0006.71,0002.90,0002.47
2024-05-14 07:50:00,SystemResetWarning,0825.6,5.00,000.00,024.6,022.9,000.0,033.2,026.1,020.0,0000.0,0006.78,0002.92,0002.46
2024-05-14 07:51:00,SystemResetWarning,0825.6,5.02,000.00,024.7,023.2,000.0,033.1,026.2,020.3,0000.0,0006.77,0002.91,0002.45
2024-05-14 07:52:00,SystemResetWarning,0825.6,5.00,000.00,024.7,023.4,000.0,033.1,026.3,020.2,0000.0,0006.78,0002.89,0002.44
2024-05-14 07:53:00,SystemResetWarning,0825.6,5.01,000.00,024.8,023.7,000.0,033.1,026.4,019.8,0000.0,0006.74,0002.87,0002.42
2024-05-14 07:54:00,SystemResetWarning,0825.6,5.00,000.00,024.8,023.8,000.0,033.1,026.5,019.9,0000.0,0006.47,0002.86,0002.41
2024-05-14 07:55:00,SystemResetWarning,0825.6,4.99,000.00,024.8,024.0,000.0,033.1,026.6,020.0,0000.0,0005.72,0002.85,0002.42
2024-05-14 07:56:00,SystemResetWarning,0825.6,4.99,000.00,024.9,024.1,000.0,033.1,026.6,019.8,0000.0,0005.74,0002.85,0002.41
2024-05-14 07:57:00,SystemResetWarning,0825.5,5.01,000.00,024.9,024.2,000.0,033.1,026.7,019.7,0000.0,0004.98,0002.84,0002.41
2024-05-14 07:58:00,SystemResetWarning,0825.5,5.00,000.00,025.0,024.3,000.0,033.1,026.8,019.5,0000.0,0004.83,0002.87,0002.40
2024-05-14 07:59:00,SystemResetWarning,0825.6,5.00,000.00,025.0,024.4,000.0,033.1,026.8,019.3,0000.0,0004.31,0002.86,0002.37
